Find Starlink 36157

NORAD ID: 66933 Int'l Des: 2025-286 Owner: SPXS Country: US Constellation: starlink operational
LEOCIRCULAR

現在のビュー

3D地球を読み込み中...

Starlink 36157について

説明を読み込み中...

次回通過

Passes for default location (London). Set your location on the main map for personalized predictions.

高度履歴

Loading altitude history...

軌道要素

1 66933U 25286J 26146.30824372 .00008380 00000-0 25895-3 0 9999
2 66933 53.1616 357.6972 0001210 90.0060 270.1082 15.34390082 27306
Epoch: May 26, 2026 • Age: 14 hours

現在のステータス

高度 481.2 km
速度 7.62 km/s
衛星直下点 -51.15°S, 85.88°E
打ち上げ日 Dec 7, 2025
運用期間 0.4 years
タイプ internet

技術仕様

分類 Payload
質量 575.00 kg
乾燥質量 530.00 kg
総質量 575.00 kg
長さ 0.30 m
直径 4.10 m
スパン 29.00 m
形状 Box + pan
製造者 SPXS
バスタイプ Starlink V2MO
フェーズステータス In Orbit
所有者/国 SPXS/US

Most Searched